Simultaneous Nadir Overpasses (SNOs) Predictions

Prediction of SNOs between NOAA-19 and TERRA Satellite Orbit:

Table of predicted SNOs for the next 14.0 days since TLE Epoch: 4/10/2021
Index Date (NOAA-19) Time (NOAA-19) Lat,Lon (NOAA-19) SZA (NOAA-19 ) Date (TERRA) Time (TERRA) Lat,Lon (TERRA) SZA (TERRA ) Distance(km) Time Diff (sec)
1 04/11/2021 13:20:27 80.16, 12.46 73.16 04/11/2021 13:21:40 80.17, 12.41 73.20 1.93 73
2 04/11/2021 14:11:31 -80.15, 179.79 106.85 04/11/2021 14:11:08 -80.13, 179.72 106.88 2.06 23
3 04/13/2021 19:44:39 80.16, -83.57 72.36 04/13/2021 19:44:50 80.15, -83.61 72.35 1.74 11
4 04/16/2021 01:17:54 -80.16, 13.20 108.42 04/16/2021 01:18:32 -80.19, 13.30 108.37 3.45 38
5 04/16/2021 02:08:50 80.14,-179.28 71.59 04/16/2021 02:07:59 80.15,-179.35 71.57 1.70 51
6 04/18/2021 06:51:03 80.18, 109.72 70.82 04/18/2021 06:52:15 80.16, 109.61 70.81 3.39 72
7 04/18/2021 07:42:05 -80.15, -82.66 109.18 04/18/2021 07:41:42 -80.16, -82.73 109.20 1.42 23
8 04/20/2021 13:15:14 80.17, 13.98 70.07 04/20/2021 13:15:24 80.16, 13.83 70.05 3.00 10
9 04/22/2021 18:48:28 -80.18, 110.59 110.67 04/22/2021 18:49:07 -80.16, 110.44 110.68 3.22 39



Historial Predications of SNOs between NOAA-19 and TERRA
